Imperial, NE

7:32 PM MST on February 25, 2017 (GMT -0700)
Imperial Municipal

Weather History for KIML - February, 2013

Change the Weather History Date:

Sunday, February 3, 2013

  Actual Average Record
Temperature  
Mean Temperature 36 °F 29 °F  
Max Temperature 53 °F 42 °F 75 °F (1962)
Min Temperature 19 °F 17 °F -17 °F (1989)
Degree Days  
Heating Degree Days 29 36  
Month to date heating degree days 82 108  
Cooling Degree Days 0 0  
Month to date cooling degree days 0 0  
Year to date cooling degree days 0 0  
Moisture  
Dew Point 21 °F    
Average Humidity 56    
Maximum Humidity 84    
Minimum Humidity 28    
Precipitation  
Precipitation 0.00 in 0.02 in 0.65 in (1903)
Sea Level Pressure  
Sea Level Pressure 30.06 in    
Wind  
Wind Speed 9 mph (WSW)    
Max Wind Speed 20 mph    
Max Gust Speed 28 mph    
Visibility 10 miles    
Events      
T = Trace of Precipitation, MM = Missing Value Source: NWS Daily Summary

Daily Weather History Graph

Daily Weather History Graph

Search for Another Location

Airport or City:

Trip Planner

Search our weather history database for the weather conditions in past years. The results will help you decide how hot, cold, wet, or windy it might be!

Date:

Astronomy

Feb. 03, 2013 Rise Set
Actual Time 6:53 AM MST 5:07 PM MST
Civil Twilight 6:25 AM MST 5:36 PM MST
Nautical Twilight 5:52 AM MST 6:08 PM MST
Astronomical Twilight 5:20 AM MST 6:40 PM MST
Moon 12:23 AM MST (2/3) 10:45 AM MST (2/3)
Length of Visible Light 11h 11m
Length of Day
10h 13m
Waning Gibbous, 48% of the Moon is Illuminated
Feb 3
Waning Gibbous
Feb 10
New
Feb 17
First Quarter
Feb 25
Full
Mar 4
Last Quarter

Hourly Weather History & Observations

Time (MST) Temp. Windchill Dew Point Humidity Pressure Visibility Wind Dir Wind Speed Gust Speed Precip Events Conditions
12:53 AM 26.1 °F 20.5 °F 19.0 °F 75% 30.31 in 10.0 mi SW 4.6 mph - N/A   Clear
1:53 AM 25.0 °F 18.1 °F 19.0 °F 78% 30.29 in 10.0 mi West 5.8 mph - N/A   Clear
2:53 AM 25.0 °F 18.1 °F 19.0 °F 78% 30.26 in 10.0 mi West 5.8 mph - N/A   Clear
3:53 AM 19.0 °F - 15.1 °F 85% 30.25 in 10.0 mi Calm Calm - N/A   Clear
4:53 AM 21.9 °F 15.7 °F 18.0 °F 85% 30.25 in 10.0 mi WSW 4.6 mph - N/A   Clear
5:53 AM 21.9 °F - 17.1 °F 82% 30.25 in 10.0 mi Calm Calm - N/A   Clear
6:53 AM 21.9 °F 14.5 °F 18.0 °F 85% 30.23 in 10.0 mi WSW 5.8 mph - N/A   Clear
7:53 AM 26.1 °F 17.6 °F 19.0 °F 75% 30.22 in 10.0 mi WSW 8.1 mph - N/A   Clear
8:53 AM 32.0 °F 26.4 °F 23.0 °F 69% 30.18 in 10.0 mi SW 5.8 mph - N/A   Clear
9:53 AM 41.0 °F 34.3 °F 23.0 °F 49% 30.15 in 10.0 mi SW 11.5 mph - N/A   Clear
10:53 AM 46.0 °F 39.0 °F 19.9 °F 35% 30.10 in 10.0 mi SSW 17.3 mph - N/A   Clear
11:53 AM 50.0 °F - 19.9 °F 31% 30.02 in 10.0 mi SSW 19.6 mph 26.5 mph N/A   Clear
12:53 PM 52.0 °F - 19.9 °F 28% 29.97 in 10.0 mi SSW 17.3 mph - N/A   Clear
1:53 PM 52.0 °F - 21.0 °F 30% 29.93 in 10.0 mi SSW 12.7 mph - N/A   Clear
2:53 PM 52.0 °F - 21.9 °F 31% 29.91 in 10.0 mi SSW 10.4 mph - N/A   Clear
3:53 PM 51.1 °F - 23.0 °F 33% 29.92 in 10.0 mi SW 3.5 mph - N/A   Clear
4:53 PM 44.1 °F 40.1 °F 24.1 °F 45% 29.91 in 10.0 mi SW 6.9 mph - N/A   Clear
5:53 PM 41.0 °F 38.0 °F 24.1 °F 51% 29.91 in 10.0 mi WSW 4.6 mph - N/A   Clear
6:53 PM 37.0 °F 31.6 °F 23.0 °F 57% 29.91 in 10.0 mi WSW 6.9 mph - N/A   Clear
7:53 PM 37.0 °F 31.0 °F 23.0 °F 57% 29.91 in 10.0 mi WNW 8.1 mph - N/A   Clear
8:53 PM 39.0 °F 31.8 °F 23.0 °F 53% 29.90 in 10.0 mi WNW 11.5 mph - N/A   Clear
9:53 PM 37.0 °F 27.7 °F 21.0 °F 52% 29.90 in 10.0 mi NW 16.1 mph - N/A   Clear
10:53 PM 35.1 °F 25.9 °F 21.0 °F 57% 29.91 in 10.0 mi NW 13.8 mph - N/A   Clear
11:53 PM 33.1 °F 23.9 °F 21.9 °F 64% 29.93 in 10.0 mi NNW 12.7 mph - N/A   Clear